LFBELFBP

Guest
Details From LFBE - Bergerac Roumaniere
To LFBP - Pau Pyrenees
Flight Number -
Tags Decoded
Created
Modified
Stats Distance 125 nm / 231 km
Max Altitude 0 ft / 0 m
Waypoints 4
Social Downloads 2
Likes 0
Share VATSIM

Download

Looking for another format? Having issues loading an existing format? Contact us
Advertisement - Login to hide

Notes

Decoded

Route

LFBE LACOU AGN LFBP

ID Type Via Altitude Latitude Longitude Leg Dist Tot Dist Heading (true) Name
O LFBE APT - 0 ft / 0 m 44.82527˚ 0.50495˚ - 0 nm - -
LACOU FIX - 0 ft / 0 m 44.29678˚ 0.90439˚ 36 nm 36 nm 152° / 152° -
AGN VOR - 0 ft / 0 m 43.88803˚ 0.87286˚ 24 nm 60 nm 183° / 183° AGEN-Gaudonville VOR-DME
O LFBP APT - 0 ft / 0 m 43.38766˚ -0.43326˚ 64 nm 124 nm 243° / 242° -

Altitude Profile

Advertisement - Login to hide

LFBE

Details ICAO LFBE (EGC)
Name Bergerac Roumaniere
Region France
Timezone Europe/Paris (UTC+1.0)
Stats Elevation 171 ft / 52 m (AMSL)
Location 44.824525° 0.518776°
Runways 1
Magnetic Variation 0.291° E

METAR

LFBE 181100Z AUTO 26013KT 3800 -RA BR OVC005 10/09 Q1026 TEMPO 2000 RADZ

Decode

TAF

TAF LFBE 180500Z 1806/1906 24006KT 9999 BKN035 TEMPO 1806/1808 -DZ BKN006 TEMPO 1808/1815 2000 RADZ OVC004 BECMG 1815/1817 35010KT CAVOK TEMPO 1900/1906 3000 BR NSC

Decode

Departure Runways

ID Width Length Bearing (true) Bearing (mag) Surface Threshold Offset Overrun Length
10 148 ft / 45 m 7,178 ft / 2,188 m 94.33° 94.04° Asphalt 687 ft / 209 m 0 ft / 0 m
28 148 ft / 45 m 7,178 ft / 2,188 m 274.35° 274.06° Asphalt 804 ft / 245 m 0 ft / 0 m

LFBP

Details ICAO LFBP (PUF)
Name Pau Pyrenees
Region France
Timezone Europe/Paris (UTC+1.0)
Stats Elevation 616 ft / 188 m (AMSL)
Location 43.381078° -0.420752°
Runways 1
Magnetic Variation 0.095° E

METAR

LFBP 181100Z AUTO 26009KT 9000 -RADZ BKN018 BKN025 OVC036 09/07 Q1030 TEMPO 2000 DZRA BKN003

Decode

TAF

TAF AMD LFBP 180707Z 1807/1906 22010KT 9999 SCT020 BKN040 TEMPO 1807/1820 4500 -RA BKN012 PROB40 TEMPO 1811/1820 2000 DZRA BKN003 PROB40 TEMPO 1816/1820 30015G25KT BECMG 1820/1822 01006KT SCT014 PROB40 1900/1906 2000 BCFG BKN004 PROB30 TEMPO 1901/1906 0500 FG VV///

Decode

Destination Runways

ID Width Length Bearing (true) Bearing (mag) Surface Threshold Offset Overrun Length
13 148 ft / 45 m 8,191 ft / 2,497 m 125.89° 125.79° Asphalt 0 ft / 0 m 0 ft / 0 m
31 148 ft / 45 m 8,191 ft / 2,497 m 305.90° 305.80° Asphalt 0 ft / 0 m 0 ft / 0 m

Approach Navaids

Runway Type Ident Frequency Range Bearing (true) Bearing (mag) Slope Elevation
31 Localiser PU 110.10 MHz 18 nm / 33 km 305.89° 305.79° - 576 ft / 176 m (AMSL)
31 Glidescope PU 110.10 MHz 10 nm / 19 km 305.90° 305.80° 3.00° 676 ft / 206 m (AMSL)
31 DME PU 110.10 MHz 18 nm / 33 km - - - 608 ft / 185 m (AMSL)

Popular Alternatives